DW0495 Weather Reports


time (UTC)temp
C
wind
direction
speed
KPH
gust
KPH
rain 1hr
cm
rain 24hr
cm
rain mn
cm
humidity
%
barometer
mb
20260502194017 22 148 0.0 4.8 0.00 0.00 0.00 22 1018.9
20260502193019 22 107 0.0 0.0 0.00 0.00 0.00 19 1019.0
20260502191741 22 107 0.0 0.0 0.00 0.00 0.00 18 1019.3
20260502190741 22 80 0.0 0.0 0.00 0.00 0.00 27 1019.4
20260502185742 21 80 0.0 0.0 0.00 0.00 0.00 24 1019.5
20260502184741 21 80 0.0 0.0 0.00 0.00 0.00 22 1019.6
20260502183743 21 80 0.0 0.0 0.00 0.00 0.00 27 1019.7
20260502183244 21 63 0.0 0.0 0.00 0.00 0.00 25 1019.9
20260502182106 20 62 0.0 0.0 0.00 0.00 0.00 30 1020.2
20260502181600 21 63 0.0 0.0 0.00 0.00 0.00 27 1020.0
20260502170138 17 62 0.0 0.0 0.00 0.00 0.00 35 1020.8
20260502164017 15 63 0.0 0.0 0.00 0.00 0.00 38 1020.9
20260502162241 15 62 0.0 0.0 0.00 0.00 0.00 37 1021.0
20260502161242 14 62 0.0 0.0 0.00 0.00 0.00 39 1021.0
20260502160241 13 62 0.0 0.0 0.00 0.00 0.00 41 1021.0
20260502151643 10 62 0.0 0.0 0.00 0.00 0.00 50 1021.1
20260502150643 10 62 0.0 0.0 0.00 0.00 0.00 52 1021.1
20260502123756 0 62 0.0 0.0 0.00 0.00 0.00 73 1020.5
20260502122756 0 62 0.0 0.0 0.00 0.00 0.00 72 1020.5
20260502121757 1 62 0.0 0.0 0.00 0.00 0.00 72 1020.5
20260502115033 1 62 0.0 0.0 0.00 0.00 0.00 72 1020.5
20260502114033 1 62 0.0 0.0 0.00 0.00 0.00 71 1020.7
20260502113035 1 62 0.0 0.0 0.00 0.00 0.00 70 1020.7
20260502111419 1 62 0.0 0.0 0.00 0.00 0.00 69 1020.7
20260502110418 1 62 0.0 0.0 0.00 0.00 0.00 70 1020.7
20260502105419 1 62 0.0 0.0 0.00 0.00 0.00 69 1020.8
20260502104420 1 62 0.0 0.0 0.00 0.00 0.00 68 1020.8
20260502103423 2 62 0.0 0.0 0.00 0.00 0.00 67 1020.7
20260502103419 2 62 0.0 0.0 0.00 0.00 0.00 68 1020.8
20260502101421 2 62 0.0 0.0 0.00 0.00 0.00 66 1020.7
20260502100307 2 62 0.0 0.0 0.00 0.00 0.00 66 1020.7
20260502091308 3 62 0.0 0.0 0.00 0.00 0.00 62 1020.5
20260502090356 3 62 0.0 0.0 0.00 0.00 0.00 61 1020.4
20260502071432 5 62 0.0 0.0 0.00 0.00 0.00 56 1020.3
20260502070430 5 62 0.0 0.0 0.00 0.00 0.00 55 1020.2
20260502065431 5 62 0.0 0.0 0.00 0.00 0.00 53 1020.1
20260502064037 6 62 0.0 0.0 0.00 0.00 0.00 53 1020.1
20260502063034 6 62 0.0 0.0 0.00 0.00 0.00 53 1020.0
20260502062032 6 62 0.0 0.0 0.00 0.00 0.00 52 1020.0
20260502060554 6 62 0.0 0.0 0.00 0.00 0.00 51 1020.0
20260502055554 7 62 0.0 0.0 0.00 0.00 0.00 50 1020.0
20260502054554 7 62 0.0 0.0 0.00 0.00 0.00 49 1020.0
20260502053552 7 62 0.0 0.0 0.00 0.00 0.00 46 1020.0
20260502052101 8 62 0.0 0.0 0.00 0.00 0.00 45 1020.0
20260502051100 8 62 0.0 0.0 0.00 0.00 0.00 45 1020.0
20260502050101 8 62 0.0 0.0 0.00 0.00 0.00 43 1019.9
20260502045058 8 62 0.0 0.0 0.00 0.00 0.00 43 1020.0
20260502043725 9 62 0.0 0.0 0.00 0.00 0.00 42 1019.9
20260502042726 10 62 0.0 0.0 0.00 0.00 0.00 42 1019.9
20260502041258 10 62 0.0 0.0 0.00 0.00 0.00 37 1019.9
20260502040256 10 62 0.0 0.0 0.00 0.00 0.00 37 1019.7
20260502035257 11 62 0.0 0.0 0.00 0.00 0.00 36 1019.7
20260502034258 11 62 0.0 0.0 0.00 0.00 0.00 34 1019.6
20260502032843 12 62 0.0 0.0 0.00 0.00 0.00 33 1019.4
20260502031341 12 62 0.0 0.0 0.00 0.00 0.00 32 1019.3
20260502030340 13 62 0.0 0.0 0.00 0.00 0.00 30 1019.2
20260502024807 13 62 0.0 0.0 0.00 0.00 0.00 28 1019.0
20260502023804 14 62 0.0 0.0 0.00 0.00 0.00 26 1018.9
20260502022806 15 62 0.0 0.0 0.00 0.00 0.00 25 1018.9
20260502021552 16 62 0.0 0.0 0.00 0.00 0.00 22 1018.9
20260502020550 17 62 0.0 0.0 0.00 0.00 0.00 20 1018.9
20260502015551 17 62 0.0 0.0 0.00 0.00 0.00 18 1018.9
20260502014552 17 62 0.0 0.0 0.00 0.00 0.00 17 1018.9
20260502012705 17 62 0.0 0.0 0.00 0.00 0.00 17 1018.9
20260502011705 17 62 0.0 0.0 0.00 0.00 0.00 16 1018.9
20260502010704 17 62 0.0 0.0 0.00 0.00 0.00 16 1019.0
20260502005704 18 62 0.0 0.0 0.00 0.00 0.00 15 1019.0
20260502004705 17 62 0.0 0.0 0.00 0.00 0.00 16 1019.0
20260502003544 17 62 0.0 0.0 0.00 0.00 0.00 18 1019.0
20260502002544 18 62 0.0 0.0 0.00 0.00 0.00 15 1019.2
20260502001546 18 62 0.0 0.0 0.00 0.00 0.00 18 1019.2
20260501235719 17 89 0.0 0.0 0.00 0.00 0.00 20 1019.2
20260501235013 17 90 0.0 0.0 0.00 0.00 0.00 21 1019.2
20260501233511 17 90 0.0 0.0 0.00 0.00 0.00 23 1019.3
20260501232512 17 90 0.0 0.0 0.00 0.00 0.00 21 1019.3
20260501231512 17 90 0.0 0.0 0.00 0.00 0.00 21 1019.4
20260501230513 17 90 0.0 0.0 0.00 0.00 0.00 21 1019.4
20260501225328 17 98 0.0 0.0 0.00 0.00 0.00 20 1019.6
20260501224326 17 98 0.0 0.0 0.00 0.00 0.00 19 1019.6
20260501223328 17 98 0.0 0.0 0.00 0.00 0.00 23 1019.7
20260501222326 17 98 0.0 0.0 0.00 0.00 0.00 22 1019.9
20260501221326 17 98 0.0 0.0 0.00 0.00 0.00 23 1020.0
20260501220327 17 98 0.0 0.0 0.00 0.00 0.00 24 1020.1
20260501214714 17 98 0.0 0.0 0.00 0.00 0.00 27 1020.3
20260501214215 17 98 0.0 0.0 0.00 0.00 0.00 22 1020.5
20260501212715 18 98 0.0 0.0 0.00 0.00 0.00 23 1020.5
20260501211334 18 62 0.0 0.0 0.00 0.00 0.00 22 1020.8
20260501210052 18 62 0.0 0.0 0.00 0.00 0.00 29 1020.8
20260501205051 18 342 0.0 0.0 0.00 0.00 0.00 28 1020.9
20260501204049 18 340 0.0 0.0 0.00 0.00 0.00 28 1021.0
20260501203050 18 340 0.0 0.0 0.00 0.00 0.00 23 1021.1
20260501202051 18 340 0.0 0.0 0.00 0.00 0.00 24 1021.0
20260501201240 18 340 0.0 0.0 0.00 0.00 0.00 27 1021.0
20260501200238 18 348 0.0 0.0 0.00 0.00 0.00 27 1021.1
20260501194735 18 348 0.0 0.0 0.00 0.00 0.00 26 1021.2